Time,TemperatureF,DewpointF,PressureIn,WindDirection,WindDirectionDegrees,WindSpeedMPH,WindSpeedGustMPH,Humidity,HourlyPrecipIn,Conditions,Clouds,dailyrainin,SoftwareType,DateUTC
2013-07-16 00:01:00,75.1,71.3,30.26,ESE,121,0.0,0.0,88,0.00,,,0.00,WeatherCatV1.11B39,2013-07-16 04:01:00,
2013-07-16 00:06:00,75.1,71.3,30.26,ESE,121,0.0,0.0,88,0.00,,,0.00,WeatherCatV1.11B39,2013-07-16 04:06:00,
2013-07-16 00:11:00,75.1,71.3,30.26,ESE,121,0.0,0.0,88,0.00,,,0.00,WeatherCatV1.11B39,2013-07-16 04:11:00,
2013-07-16 00:16:00,75.1,71.3,30.25,ESE,121,0.0,0.0,88,0.00,,,0.00,WeatherCatV1.11B39,2013-07-16 04:16:00,
2013-07-16 00:21:00,74.7,70.9,30.25,ESE,121,0.0,0.0,88,0.00,,,0.00,WeatherCatV1.11B39,2013-07-16 04:21:00,
2013-07-16 00:26:00,74.7,71.2,30.25,ESE,121,0.0,0.0,89,0.00,,,0.00,WeatherCatV1.11B39,2013-07-16 04:26:00,
2013-07-16 00:31:00,74.7,71.2,30.25,ESE,121,0.0,0.0,89,0.00,,,0.00,WeatherCatV1.11B39,2013-07-16 04:31:00,
2013-07-16 00:36:00,74.6,71.1,30.25,ESE,121,0.0,0.0,89,0.00,,,0.00,WeatherCatV1.11B39,2013-07-16 04:36:00,
2013-07-16 00:41:00,74.4,70.9,30.25,ESE,121,0.0,0.0,89,0.00,,,0.00,WeatherCatV1.11B39,2013-07-16 04:41:00,
2013-07-16 00:46:00,74.4,70.9,30.25,ESE,121,0.0,0.0,89,0.00,,,0.00,WeatherCatV1.11B39,2013-07-16 04:46:00,
2013-07-16 00:51:00,74.4,70.9,30.25,North,-999,-999.0,0.0,89,0.00,,,0.00,WeatherCatV1.11B39,2013-07-16 04:51:00,
2013-07-16 00:56:00,74.4,71.3,30.25,ESE,121,0.0,0.0,90,0.00,,,0.00,WeatherCatV1.11B39,2013-07-16 04:56:00,
2013-07-16 01:01:00,74.4,71.3,30.25,ESE,121,0.0,0.0,90,0.00,,,0.00,WeatherCatV1.11B39,2013-07-16 05:01:00,
2013-07-16 01:06:00,74.2,71.1,30.25,ESE,121,0.0,0.0,90,0.00,,,0.00,WeatherCatV1.11B39,2013-07-16 05:06:00,
2013-07-16 01:11:00,74.2,71.1,30.25,ESE,121,0.0,0.0,90,0.00,,,0.00,WeatherCatV1.11B39,2013-07-16 05:11:00,
2013-07-16 01:16:00,74.0,70.9,30.25,ESE,119,0.0,0.0,90,0.00,,,0.00,WeatherCatV1.11B39,2013-07-16 05:16:00,
2013-07-16 01:21:00,73.9,70.8,30.25,ESE,119,0.0,0.0,90,0.00,,,0.00,WeatherCatV1.11B39,2013-07-16 05:21:00,
2013-07-16 01:26:00,73.9,70.8,30.25,ESE,120,0.0,0.0,90,0.00,,,0.00,WeatherCatV1.11B39,2013-07-16 05:26:00,
2013-07-16 01:31:00,73.9,70.8,30.25,ESE,120,0.0,0.0,90,0.00,,,0.00,WeatherCatV1.11B39,2013-07-16 05:31:00,
2013-07-16 01:36:00,73.9,70.8,30.25,ESE,120,0.0,0.0,90,0.00,,,0.00,WeatherCatV1.11B39,2013-07-16 05:36:00,
2013-07-16 01:41:00,73.9,70.8,30.25,ESE,119,0.0,0.0,90,0.00,,,0.00,WeatherCatV1.11B39,2013-07-16 05:41:00,
2013-07-16 01:46:00,73.7,70.6,30.25,ESE,119,0.0,0.0,90,0.00,,,0.00,WeatherCatV1.11B39,2013-07-16 05:46:00,
2013-07-16 01:51:00,73.7,70.6,30.25,ESE,120,0.0,0.0,90,0.00,,,0.00,WeatherCatV1.11B39,2013-07-16 05:51:00,
2013-07-16 01:56:00,73.7,70.6,30.25,ESE,119,0.0,0.0,90,0.00,,,0.00,WeatherCatV1.11B39,2013-07-16 05:56:00,
2013-07-16 02:01:00,73.7,70.6,30.25,ESE,119,0.0,0.0,90,0.00,,,0.00,WeatherCatV1.11B39,2013-07-16 06:01:00,
2013-07-16 02:06:00,73.7,70.6,30.25,ESE,119,0.0,0.0,90,0.00,,,0.00,WeatherCatV1.11B39,2013-07-16 06:06:00,
2013-07-16 02:11:00,73.7,70.6,30.25,North,-999,-999.0,0.0,90,0.00,,,0.00,WeatherCatV1.11B39,2013-07-16 06:11:00,
2013-07-16 02:16:00,-999.0,-99.9,30.25,North,-999,-999.0,0.0,-999,0.00,,,0.00,WeatherCatV1.11B39,2013-07-16 06:16:00,
2013-07-16 02:21:00,-999.0,-99.9,30.25,North,-999,-999.0,0.0,-999,0.00,,,0.00,WeatherCatV1.11B39,2013-07-16 06:21:00,
2013-07-16 02:26:00,-999.0,-99.9,30.25,North,-999,-999.0,0.0,-999,0.00,,,0.00,WeatherCatV1.11B39,2013-07-16 06:26:00,
2013-07-16 02:31:00,-999.0,-99.9,30.25,North,-999,-999.0,0.0,-999,0.00,,,0.00,WeatherCatV1.11B39,2013-07-16 06:31:00,
2013-07-16 02:36:00,-999.0,-99.9,30.25,North,-999,-999.0,0.0,-999,0.00,,,0.00,WeatherCatV1.11B39,2013-07-16 06:36:00,
2013-07-16 02:41:00,-999.0,-99.9,30.25,North,-999,-999.0,0.0,-999,0.00,,,0.00,WeatherCatV1.11B39,2013-07-16 06:41:00,
2013-07-16 02:46:00,-999.0,-99.9,30.24,North,-999,-999.0,0.0,-999,0.00,,,0.00,WeatherCatV1.11B39,2013-07-16 06:46:00,
2013-07-16 02:51:00,-999.0,-99.9,30.24,North,-999,-999.0,0.0,-999,0.00,,,0.00,WeatherCatV1.11B39,2013-07-16 06:51:00,
2013-07-16 02:56:00,-999.0,-99.9,30.24,North,-999,-999.0,0.0,-999,0.00,,,0.00,WeatherCatV1.11B39,2013-07-16 06:56:00,
2013-07-16 03:01:00,-999.0,-99.9,30.24,North,-999,-999.0,0.0,-999,0.00,,,0.00,WeatherCatV1.11B39,2013-07-16 07:01:00,
2013-07-16 03:06:00,-999.0,-99.9,30.24,North,-999,-999.0,0.0,-999,0.00,,,0.00,WeatherCatV1.11B39,2013-07-16 07:06:00,
2013-07-16 03:11:00,-999.0,-99.9,30.24,North,-999,-999.0,0.0,-999,0.00,,,0.00,WeatherCatV1.11B39,2013-07-16 07:11:00,
2013-07-16 03:16:00,-999.0,-99.9,30.24,North,-999,-999.0,0.0,-999,0.00,,,0.00,WeatherCatV1.11B39,2013-07-16 07:16:00,
2013-07-16 03:21:00,-999.0,-99.9,30.24,North,-999,-999.0,0.0,-999,0.00,,,0.00,WeatherCatV1.11B39,2013-07-16 07:21:00,
2013-07-16 03:26:00,-999.0,-99.9,30.24,North,-999,-999.0,0.0,-999,0.00,,,0.00,WeatherCatV1.11B39,2013-07-16 07:26:00,
2013-07-16 03:31:00,-999.0,-99.9,30.24,North,-999,-999.0,0.0,-999,0.00,,,0.00,WeatherCatV1.11B39,2013-07-16 07:31:00,
2013-07-16 03:36:00,-999.0,-99.9,30.24,North,-999,-999.0,0.0,-999,0.00,,,0.00,WeatherCatV1.11B39,2013-07-16 07:36:00,
2013-07-16 03:41:00,-999.0,-99.9,30.24,North,-999,-999.0,0.0,-999,0.00,,,0.00,WeatherCatV1.11B39,2013-07-16 07:41:00,
2013-07-16 03:46:00,-999.0,-99.9,30.24,North,-999,-999.0,0.0,-999,0.00,,,0.00,WeatherCatV1.11B39,2013-07-16 07:46:00,
2013-07-16 03:51:00,-999.0,-99.9,30.24,North,-999,-999.0,0.0,-999,0.00,,,0.00,WeatherCatV1.11B39,2013-07-16 07:51:00,
2013-07-16 03:56:00,-999.0,-99.9,30.24,North,-999,-999.0,0.0,-999,0.00,,,0.00,WeatherCatV1.11B39,2013-07-16 07:56:00,
2013-07-16 04:01:00,-999.0,-99.9,30.24,North,-999,-999.0,0.0,-999,0.00,,,0.00,WeatherCatV1.11B39,2013-07-16 08:01:00,
2013-07-16 04:06:00,-999.0,-99.9,30.24,North,-999,-999.0,0.0,-999,0.00,,,0.00,WeatherCatV1.11B39,2013-07-16 08:06:00,
2013-07-16 04:11:00,-999.0,-99.9,30.24,North,-999,-999.0,0.0,-999,0.00,,,0.00,WeatherCatV1.11B39,2013-07-16 08:11:00,
2013-07-16 04:16:00,-999.0,-99.9,30.23,North,-999,-999.0,0.0,-999,0.00,,,0.00,WeatherCatV1.11B39,2013-07-16 08:16:00,
2013-07-16 04:21:00,-999.0,-99.9,30.23,North,-999,-999.0,0.0,-999,0.00,,,0.00,WeatherCatV1.11B39,2013-07-16 08:21:00,
2013-07-16 04:26:00,-999.0,-99.9,30.23,North,-999,-999.0,0.0,-999,0.00,,,0.00,WeatherCatV1.11B39,2013-07-16 08:26:00,
2013-07-16 04:31:00,-999.0,-99.9,30.23,North,-999,-999.0,0.0,-999,0.00,,,0.00,WeatherCatV1.11B39,2013-07-16 08:31:00,
2013-07-16 04:36:00,-999.0,-99.9,30.23,North,-999,-999.0,0.0,-999,0.00,,,0.00,WeatherCatV1.11B39,2013-07-16 08:36:00,
2013-07-16 04:41:00,-999.0,-99.9,30.23,ESE,112,0.0,0.0,-999,0.00,,,0.00,WeatherCatV1.11B39,2013-07-16 08:41:00,
2013-07-16 04:46:00,-999.0,-99.9,30.24,ESE,112,0.0,0.0,-999,0.00,,,0.00,WeatherCatV1.11B39,2013-07-16 08:46:00,
2013-07-16 04:51:00,-999.0,-99.9,30.24,ESE,112,0.0,0.0,92,0.00,,,0.00,WeatherCatV1.11B39,2013-07-16 08:51:00,
2013-07-16 04:56:00,-999.0,-99.9,30.24,ESE,112,0.0,0.0,92,0.00,,,0.00,WeatherCatV1.11B39,2013-07-16 08:56:00,
2013-07-16 05:01:00,-999.0,-99.9,30.23,ESE,112,0.0,0.0,92,0.00,,,0.00,WeatherCatV1.11B39,2013-07-16 09:01:00,
2013-07-16 05:06:00,72.5,70.0,30.23,ESE,112,0.0,0.0,92,0.00,,,0.00,WeatherCatV1.11B39,2013-07-16 09:06:00,
2013-07-16 05:11:00,72.5,70.0,30.23,ESE,112,0.0,0.0,92,0.00,,,0.00,WeatherCatV1.11B39,2013-07-16 09:11:00,
2013-07-16 05:16:00,72.5,70.0,30.24,ESE,112,0.0,0.0,92,0.00,,,0.00,WeatherCatV1.11B39,2013-07-16 09:16:00,
2013-07-16 05:21:00,72.5,70.0,30.24,North,-999,-999.0,0.0,92,0.00,,,0.00,WeatherCatV1.11B39,2013-07-16 09:21:00,
2013-07-16 05:26:00,72.1,69.6,30.24,ESE,112,0.0,0.0,92,0.00,,,0.00,WeatherCatV1.11B39,2013-07-16 09:26:00,
2013-07-16 05:31:00,72.1,69.6,30.24,ESE,112,0.0,0.0,92,0.00,,,0.00,WeatherCatV1.11B39,2013-07-16 09:31:00,
2013-07-16 05:36:00,72.0,69.5,30.24,ESE,112,0.0,0.0,92,0.00,,,0.00,WeatherCatV1.11B39,2013-07-16 09:36:00,
2013-07-16 05:41:00,72.0,69.5,30.24,East,80,0.0,0.0,92,0.00,,,0.00,WeatherCatV1.11B39,2013-07-16 09:41:00,
2013-07-16 05:46:00,71.8,69.3,30.24,East,80,0.0,0.0,92,0.00,,,0.00,WeatherCatV1.11B39,2013-07-16 09:46:00,
2013-07-16 05:51:00,71.8,69.3,30.24,East,80,0.0,0.0,92,0.00,,,0.00,WeatherCatV1.11B39,2013-07-16 09:51:00,
2013-07-16 05:56:00,71.8,69.3,30.24,East,80,0.0,0.0,92,0.00,,,0.00,WeatherCatV1.11B39,2013-07-16 09:56:00,
2013-07-16 06:01:00,71.8,69.3,30.25,North,-999,-999.0,0.0,92,0.00,,,0.00,WeatherCatV1.11B39,2013-07-16 10:01:00,
2013-07-16 06:06:00,71.8,69.3,30.25,North,-999,-999.0,0.0,92,0.00,,,0.00,WeatherCatV1.11B39,2013-07-16 10:06:00,
2013-07-16 06:11:00,71.8,69.3,30.25,North,-999,-999.0,0.0,92,0.00,,,0.00,WeatherCatV1.11B39,2013-07-16 10:11:00,
2013-07-16 06:16:00,71.8,69.3,30.25,North,-999,-999.0,0.0,92,0.00,,,0.00,WeatherCatV1.11B39,2013-07-16 10:16:00,
2013-07-16 06:21:00,71.8,69.3,30.25,East,80,0.0,0.0,92,0.00,,,0.00,WeatherCatV1.11B39,2013-07-16 10:21:00,
2013-07-16 06:26:00,71.8,69.3,30.25,East,80,0.0,0.0,92,0.00,,,0.00,WeatherCatV1.11B39,2013-07-16 10:26:00,
2013-07-16 06:31:00,71.8,69.3,30.25,East,80,0.0,0.0,92,0.00,,,0.00,WeatherCatV1.11B39,2013-07-16 10:31:00,
2013-07-16 06:36:00,71.8,69.7,30.25,East,80,0.0,0.0,93,0.00,,,0.00,WeatherCatV1.11B39,2013-07-16 10:36:00,
2013-07-16 06:41:00,71.8,69.7,30.25,East,80,0.0,0.0,93,0.00,,,0.00,WeatherCatV1.11B39,2013-07-16 10:41:00,
2013-07-16 06:46:00,71.8,69.7,30.25,East,80,0.0,0.0,93,0.00,,,0.00,WeatherCatV1.11B39,2013-07-16 10:46:00,
2013-07-16 06:51:00,71.8,69.7,30.25,East,80,0.0,0.0,93,0.00,,,0.00,WeatherCatV1.11B39,2013-07-16 10:51:00,
2013-07-16 06:56:00,71.8,69.7,30.25,East,80,0.0,0.0,93,0.00,,,0.00,WeatherCatV1.11B39,2013-07-16 10:56:00,
2013-07-16 07:01:00,71.8,69.7,30.25,East,80,0.0,0.0,93,0.00,,,0.00,WeatherCatV1.11B39,2013-07-16 11:01:00,
2013-07-16 07:06:00,71.8,69.7,30.25,East,80,0.0,0.0,93,0.00,,,0.00,WeatherCatV1.11B39,2013-07-16 11:06:00,
2013-07-16 07:11:00,71.8,69.7,30.25,East,80,0.0,0.0,93,0.00,,,0.00,WeatherCatV1.11B39,2013-07-16 11:11:00,
2013-07-16 07:16:00,71.8,69.7,30.26,East,80,0.0,0.0,93,0.00,,,0.00,WeatherCatV1.11B39,2013-07-16 11:16:00,
2013-07-16 07:21:00,71.8,69.7,30.26,East,80,0.0,0.0,93,0.00,,,0.00,WeatherCatV1.11B39,2013-07-16 11:21:00,
2013-07-16 07:26:00,71.8,69.7,30.26,East,80,0.0,0.0,93,0.00,,,0.00,WeatherCatV1.11B39,2013-07-16 11:26:00,
2013-07-16 07:31:00,71.8,69.7,30.26,North,354,0.0,0.0,93,0.00,,,0.00,WeatherCatV1.11B39,2013-07-16 11:31:00,
2013-07-16 07:36:00,71.8,69.7,30.26,North,354,0.0,0.0,93,0.00,,,0.00,WeatherCatV1.11B39,2013-07-16 11:36:00,
2013-07-16 07:41:00,71.8,69.7,30.26,North,357,0.0,0.0,93,0.00,,,0.00,WeatherCatV1.11B39,2013-07-16 11:41:00,
2013-07-16 07:46:00,71.8,69.7,30.26,North,357,0.0,0.0,93,0.00,,,0.00,WeatherCatV1.11B39,2013-07-16 11:46:00,
2013-07-16 07:51:00,71.8,69.7,30.26,North,-999,-999.0,0.0,93,0.00,,,0.00,WeatherCatV1.11B39,2013-07-16 11:51:00,
2013-07-16 07:56:00,71.8,69.7,30.26,North,0,0.0,0.0,93,0.00,,,0.00,WeatherCatV1.11B39,2013-07-16 11:56:00,
2013-07-16 08:01:00,72.8,70.7,30.26,North,0,0.0,0.0,93,0.00,,,0.00,WeatherCatV1.11B39,2013-07-16 12:01:00,
2013-07-16 08:06:00,72.8,70.7,30.26,North,0,0.0,0.0,93,0.00,,,0.00,WeatherCatV1.11B39,2013-07-16 12:06:00,
2013-07-16 08:11:00,72.8,70.7,30.26,North,-999,-999.0,0.0,93,0.00,,,0.00,WeatherCatV1.11B39,2013-07-16 12:11:00,
2013-07-16 08:16:00,72.8,70.7,30.27,North,-999,-999.0,0.0,93,0.00,,,0.00,WeatherCatV1.11B39,2013-07-16 12:16:00,
2013-07-16 08:21:00,72.8,70.7,30.27,North,-999,-999.0,0.0,93,0.00,,,0.00,WeatherCatV1.11B39,2013-07-16 12:21:00,
2013-07-16 08:26:00,72.8,70.7,30.27,North,-999,-999.0,0.0,93,0.00,,,0.00,WeatherCatV1.11B39,2013-07-16 12:26:00,
2013-07-16 08:31:00,72.8,70.7,30.28,North,-999,-999.0,0.0,93,0.00,,,0.00,WeatherCatV1.11B39,2013-07-16 12:31:00,
2013-07-16 08:36:00,72.8,70.7,30.28,North,-999,-999.0,0.0,93,0.00,,,0.00,WeatherCatV1.11B39,2013-07-16 12:36:00,
2013-07-16 08:41:00,72.8,70.7,30.28,North,-999,-999.0,0.0,93,0.00,,,0.00,WeatherCatV1.11B39,2013-07-16 12:41:00,
2013-07-16 08:46:00,72.8,70.7,30.29,North,-999,-999.0,0.0,93,0.00,,,0.00,WeatherCatV1.11B39,2013-07-16 12:46:00,
2013-07-16 08:51:00,72.8,70.7,30.29,North,-999,-999.0,0.0,93,0.00,,,0.00,WeatherCatV1.11B39,2013-07-16 12:51:00,
2013-07-16 08:56:00,-999.0,-99.9,30.29,North,-999,-999.0,0.0,-999,0.00,,,0.00,WeatherCatV1.11B39,2013-07-16 12:56:00,
2013-07-16 09:01:00,-999.0,-99.9,30.33,North,-999,-999.0,0.0,-999,0.00,,,0.00,WeatherCatV1.11B39,2013-07-16 13:01:00,
2013-07-16 09:06:00,-999.0,-99.9,30.33,North,-999,-999.0,0.0,-999,0.00,,,0.00,WeatherCatV1.11B39,2013-07-16 13:06:00,
2013-07-16 09:11:00,-999.0,-99.9,30.33,North,-999,-999.0,0.0,-999,0.00,,,0.00,WeatherCatV1.11B39,2013-07-16 13:11:00,
2013-07-16 09:16:00,-999.0,-99.9,30.32,North,-999,-999.0,0.0,-999,0.00,,,0.00,WeatherCatV1.11B39,2013-07-16 13:16:00,
2013-07-16 09:20:00,72.8,70.7,30.32,North,360,0.0,0.0,93,0.00,,,0.00,WeatherCatV1.20B785,2013-07-16 13:20:00,
2013-07-16 09:21:00,-999.0,-99.9,30.32,North,-999,-999.0,0.0,-999,0.00,,,0.00,WeatherCatV1.11B39,2013-07-16 13:21:00,
2013-07-16 09:25:00,50.0,50.0,30.33,ENE,68,0.0,0.0,50,0.00,,,0.00,WeatherCatV1.20B785,2013-07-16 13:25:00,
2013-07-16 09:30:00,50.0,50.0,30.33,ENE,68,0.0,0.0,50,0.00,,,0.00,WeatherCatV1.20B785,2013-07-16 13:30:00,
2013-07-16 09:35:00,50.0,50.0,30.33,ENE,68,0.0,0.0,50,0.00,,,0.00,WeatherCatV1.20B785,2013-07-16 13:35:00,
2013-07-16 09:40:00,50.0,50.0,30.33,ENE,68,0.0,0.0,50,0.00,,,0.00,WeatherCatV1.20B785,2013-07-16 13:40:00,
2013-07-16 09:45:00,50.0,50.0,30.33,ENE,68,0.0,0.0,50,0.00,,,0.00,WeatherCatV1.20B785,2013-07-16 13:45:00,
2013-07-16 09:50:00,50.0,50.0,30.33,ENE,68,0.0,0.0,50,0.00,,,0.00,WeatherCatV1.20B785,2013-07-16 13:50:00,
2013-07-16 09:55:00,72.8,70.7,30.32,North,0,0.0,0.0,1,0.00,,,0.00,WeatherCatV1.20B785,2013-07-16 13:55:00,
2013-07-16 10:00:00,72.8,70.7,30.32,North,0,0.0,0.0,1,0.00,,,0.00,WeatherCatV1.20B785,2013-07-16 14:00:00,
2013-07-16 10:05:00,72.8,70.7,30.32,North,0,0.0,0.0,1,0.00,,,0.00,WeatherCatV1.20B785,2013-07-16 14:05:00,
2013-07-16 10:10:00,72.8,70.7,30.32,North,0,0.0,0.0,1,0.00,,,0.00,WeatherCatV1.20B785,2013-07-16 14:10:00,
2013-07-16 10:15:00,72.8,70.7,30.32,North,0,0.0,0.0,1,0.00,,,0.00,WeatherCatV1.20B785,2013-07-16 14:15:00,
2013-07-16 10:20:00,72.8,70.7,30.32,North,0,0.0,0.0,1,0.00,,,0.00,WeatherCatV1.20B785,2013-07-16 14:20:00,
2013-07-16 10:25:00,72.8,70.7,30.32,North,0,0.0,0.0,1,0.00,,,0.00,WeatherCatV1.20B785,2013-07-16 14:25:00,
2013-07-16 10:30:00,72.8,70.7,30.32,North,0,0.0,0.0,1,0.00,,,0.00,WeatherCatV1.20B785,2013-07-16 14:30:00,
2013-07-16 10:35:00,72.8,70.7,30.32,North,0,0.0,0.0,1,0.00,,,0.00,WeatherCatV1.20B785,2013-07-16 14:35:00,
2013-07-16 10:40:00,72.8,70.7,30.32,North,0,0.0,0.0,1,0.00,,,0.00,WeatherCatV1.20B785,2013-07-16 14:40:00,
2013-07-16 10:45:00,72.8,70.7,30.32,North,0,0.0,0.0,1,0.00,,,0.00,WeatherCatV1.20B785,2013-07-16 14:45:00,
2013-07-16 10:50:00,72.8,70.7,30.32,North,0,0.0,0.0,1,0.00,,,0.00,WeatherCatV1.20B785,2013-07-16 14:50:00,
2013-07-16 10:55:00,72.8,70.7,30.32,North,0,0.0,0.0,1,0.00,,,0.00,WeatherCatV1.20B785,2013-07-16 14:55:00,
2013-07-16 11:00:00,72.8,70.7,30.32,North,0,0.0,0.0,1,0.00,,,0.00,WeatherCatV1.20B785,2013-07-16 15:00:00,
2013-07-16 11:05:00,72.8,70.7,30.32,North,0,0.0,0.0,1,0.00,,,0.00,WeatherCatV1.20B785,2013-07-16 15:05:00,
2013-07-16 11:10:00,72.8,70.7,30.32,North,0,0.0,0.0,1,0.00,,,0.00,WeatherCatV1.20B785,2013-07-16 15:10:00,
2013-07-16 11:15:00,72.8,70.7,30.32,North,0,0.0,0.0,1,0.00,,,0.00,WeatherCatV1.20B785,2013-07-16 15:15:00,
2013-07-16 11:20:00,72.8,70.7,30.32,North,0,0.0,0.0,1,0.00,,,0.00,WeatherCatV1.20B785,2013-07-16 15:20:00,
2013-07-16 11:25:00,72.8,70.7,30.32,North,0,0.0,0.0,1,0.00,,,0.00,WeatherCatV1.20B785,2013-07-16 15:25:00,
2013-07-16 11:30:00,72.8,70.7,30.32,North,0,0.0,0.0,1,0.00,,,0.00,WeatherCatV1.20B785,2013-07-16 15:30:00,
2013-07-16 11:35:00,72.8,70.7,30.32,North,0,0.0,0.0,1,0.00,,,0.00,WeatherCatV1.20B785,2013-07-16 15:35:00,
2013-07-16 11:40:00,72.8,70.7,30.32,North,0,0.0,0.0,1,0.00,,,0.00,WeatherCatV1.20B785,2013-07-16 15:40:00,
2013-07-16 11:45:00,72.8,70.7,30.31,North,0,0.0,0.0,1,0.00,,,0.00,WeatherCatV1.20B785,2013-07-16 15:45:00,
2013-07-16 11:50:00,72.8,70.7,30.31,North,0,0.0,0.0,1,0.00,,,0.00,WeatherCatV1.20B785,2013-07-16 15:50:00,
2013-07-16 11:55:00,72.8,70.7,30.31,North,0,0.0,0.0,1,0.00,,,0.00,WeatherCatV1.20B785,2013-07-16 15:55:00,
2013-07-16 12:00:00,72.8,70.7,30.31,North,0,0.0,0.0,1,0.00,,,0.00,WeatherCatV1.20B785,2013-07-16 16:00:00,
2013-07-16 12:05:00,72.8,70.7,30.31,North,0,0.0,0.0,1,0.00,,,0.00,WeatherCatV1.20B785,2013-07-16 16:05:00,
2013-07-16 12:10:00,72.8,70.7,30.31,North,0,0.0,0.0,1,0.00,,,0.00,WeatherCatV1.20B785,2013-07-16 16:10:00,
2013-07-16 12:15:00,72.8,70.7,30.31,North,0,0.0,0.0,1,0.00,,,0.00,WeatherCatV1.20B785,2013-07-16 16:15:00,
2013-07-16 12:20:00,72.8,70.7,30.28,North,0,0.0,0.0,1,0.00,,,0.00,WeatherCatV1.20B785,2013-07-16 16:20:00,
2013-07-16 12:25:00,72.8,70.7,30.28,North,0,0.0,0.0,1,0.00,,,0.00,WeatherCatV1.20B785,2013-07-16 16:25:00,
2013-07-16 12:30:00,72.8,70.7,30.28,North,0,0.0,0.0,1,0.00,,,0.00,WeatherCatV1.20B785,2013-07-16 16:30:00,
2013-07-16 12:35:00,72.8,70.7,30.28,North,0,0.0,0.0,1,0.00,,,0.00,WeatherCatV1.20B785,2013-07-16 16:35:00,
2013-07-16 12:40:00,72.8,70.7,30.28,North,0,0.0,0.0,1,0.00,,,0.00,WeatherCatV1.20B785,2013-07-16 16:40:00,
2013-07-16 12:45:00,72.8,70.7,30.28,North,0,0.0,0.0,1,0.00,,,0.00,WeatherCatV1.20B785,2013-07-16 16:45:00,
2013-07-16 12:50:00,72.8,70.7,30.28,North,0,0.0,0.0,1,0.00,,,0.00,WeatherCatV1.20B785,2013-07-16 16:50:00,
2013-07-16 12:55:00,72.8,70.7,30.28,North,0,0.0,0.0,1,0.00,,,0.00,WeatherCatV1.20B785,2013-07-16 16:55:00,
2013-07-16 13:00:00,72.8,70.7,30.27,North,0,0.0,0.0,1,0.00,,,0.00,WeatherCatV1.20B785,2013-07-16 17:00:00,
2013-07-16 13:05:00,72.8,70.7,30.27,North,0,0.0,0.0,1,0.00,,,0.00,WeatherCatV1.20B785,2013-07-16 17:05:00,
2013-07-16 13:10:00,72.8,70.7,30.27,North,0,0.0,0.0,1,0.00,,,0.00,WeatherCatV1.20B785,2013-07-16 17:10:00,
2013-07-16 13:15:00,72.8,70.7,30.27,North,0,0.0,0.0,1,0.00,,,0.00,WeatherCatV1.20B785,2013-07-16 17:15:00,
2013-07-16 13:20:00,72.8,70.7,30.27,North,0,0.0,0.0,1,0.00,,,0.00,WeatherCatV1.20B785,2013-07-16 17:20:00,
2013-07-16 13:25:00,72.8,70.7,30.26,North,0,0.0,0.0,1,0.00,,,0.00,WeatherCatV1.20B785,2013-07-16 17:25:00,
2013-07-16 13:30:00,72.8,70.7,30.26,North,0,0.0,0.0,1,0.00,,,0.00,WeatherCatV1.20B785,2013-07-16 17:30:00,
2013-07-16 13:35:00,72.8,70.7,30.26,North,0,0.0,0.0,1,0.00,,,0.00,WeatherCatV1.20B785,2013-07-16 17:35:00,
2013-07-16 13:40:00,72.8,70.7,30.26,North,0,0.0,0.0,1,0.00,,,0.00,WeatherCatV1.20B785,2013-07-16 17:40:00,
2013-07-16 13:45:00,72.8,70.7,30.26,North,0,0.0,0.0,1,0.00,,,0.00,WeatherCatV1.20B785,2013-07-16 17:45:00,
2013-07-16 13:50:00,72.8,70.7,30.26,North,0,0.0,0.0,1,0.00,,,0.00,WeatherCatV1.20B785,2013-07-16 17:50:00,
2013-07-16 13:55:00,72.8,70.7,30.26,North,0,0.0,0.0,1,0.00,,,0.00,WeatherCatV1.20B785,2013-07-16 17:55:00,
2013-07-16 14:00:00,72.8,70.7,30.26,North,0,0.0,0.0,1,0.00,,,0.00,WeatherCatV1.20B785,2013-07-16 18:00:00,
2013-07-16 14:05:00,72.8,70.7,30.26,North,0,0.0,0.0,1,0.00,,,0.00,WeatherCatV1.20B785,2013-07-16 18:05:00,
2013-07-16 14:10:00,72.8,70.7,30.26,North,0,0.0,0.0,1,0.00,,,0.00,WeatherCatV1.20B785,2013-07-16 18:10:00,
2013-07-16 14:15:00,72.8,70.7,30.29,North,0,0.0,0.0,1,0.00,,,0.00,WeatherCatV1.20B785,2013-07-16 18:15:00,
2013-07-16 14:20:00,72.8,70.7,30.29,North,0,0.0,0.0,1,0.00,,,0.00,WeatherCatV1.20B785,2013-07-16 18:20:00,
2013-07-16 14:25:00,72.8,70.7,30.28,North,0,0.0,0.0,1,0.00,,,0.00,WeatherCatV1.20B785,2013-07-16 18:25:00,
2013-07-16 14:30:00,72.8,70.7,30.28,North,0,0.0,0.0,1,0.00,,,0.00,WeatherCatV1.20B785,2013-07-16 18:30:00,
2013-07-16 14:35:00,72.8,70.7,30.28,North,0,0.0,0.0,1,0.00,,,0.00,WeatherCatV1.20B785,2013-07-16 18:35:00,
2013-07-16 14:40:00,72.8,70.7,30.28,North,0,0.0,0.0,1,0.00,,,0.00,WeatherCatV1.20B785,2013-07-16 18:40:00,
2013-07-16 14:45:00,72.8,70.7,30.28,North,0,0.0,0.0,1,0.00,,,0.00,WeatherCatV1.20B785,2013-07-16 18:45:00,
2013-07-16 14:50:00,72.8,70.7,30.28,North,0,0.0,0.0,1,0.00,,,0.00,WeatherCatV1.20B785,2013-07-16 18:50:00,
2013-07-16 14:55:00,72.8,70.7,30.28,North,0,0.0,0.0,1,0.00,,,0.00,WeatherCatV1.20B785,2013-07-16 18:55:00,
2013-07-16 15:00:00,72.8,70.7,30.28,North,0,0.0,0.0,1,0.00,,,0.00,WeatherCatV1.20B785,2013-07-16 19:00:00,
2013-07-16 15:05:00,72.8,70.7,30.28,North,0,0.0,0.0,1,0.00,,,0.00,WeatherCatV1.20B785,2013-07-16 19:05:00,
2013-07-16 15:10:00,72.8,70.7,30.28,North,0,0.0,0.0,1,0.00,,,0.00,WeatherCatV1.20B785,2013-07-16 19:10:00,
2013-07-16 15:15:00,72.8,70.7,30.27,North,0,0.0,0.0,1,0.00,,,0.00,WeatherCatV1.20B785,2013-07-16 19:15:00,
2013-07-16 15:20:00,72.8,70.7,30.27,North,0,0.0,0.0,1,0.00,,,0.00,WeatherCatV1.20B785,2013-07-16 19:20:00,
2013-07-16 15:25:00,72.8,70.7,30.27,North,0,0.0,0.0,1,0.00,,,0.00,WeatherCatV1.20B785,2013-07-16 19:25:00,
2013-07-16 15:30:00,72.8,70.7,30.27,North,0,0.0,0.0,1,0.00,,,0.00,WeatherCatV1.20B785,2013-07-16 19:30:00,
2013-07-16 15:35:00,72.8,70.7,30.27,North,0,0.0,0.0,1,0.00,,,0.00,WeatherCatV1.20B785,2013-07-16 19:35:00,
2013-07-16 15:40:00,72.8,70.7,30.27,North,0,0.0,0.0,1,0.00,,,0.00,WeatherCatV1.20B785,2013-07-16 19:40:00,
2013-07-16 15:45:00,72.8,70.7,30.26,North,0,0.0,0.0,1,0.00,,,0.00,WeatherCatV1.20B785,2013-07-16 19:45:00,
2013-07-16 15:50:00,72.8,70.7,30.26,North,0,0.0,0.0,1,0.00,,,0.00,WeatherCatV1.20B785,2013-07-16 19:50:00,
2013-07-16 15:55:00,72.8,70.7,30.26,North,0,0.0,0.0,1,0.00,,,0.00,WeatherCatV1.20B785,2013-07-16 19:55:00,
2013-07-16 16:00:00,72.8,70.7,30.26,North,0,0.0,0.0,1,0.00,,,0.00,WeatherCatV1.20B785,2013-07-16 20:00:00,
2013-07-16 16:05:00,72.8,70.7,30.26,North,0,0.0,0.0,1,0.00,,,0.00,WeatherCatV1.20B785,2013-07-16 20:05:00,
2013-07-16 16:10:00,72.8,70.7,30.26,North,0,0.0,0.0,1,0.00,,,0.00,WeatherCatV1.20B785,2013-07-16 20:10:00,
2013-07-16 16:15:00,72.8,70.7,30.26,North,0,0.0,0.0,1,0.00,,,0.00,WeatherCatV1.20B785,2013-07-16 20:15:00,
2013-07-16 16:20:00,72.8,70.7,30.26,North,0,0.0,0.0,1,0.00,,,0.00,WeatherCatV1.20B785,2013-07-16 20:20:00,
2013-07-16 16:25:00,72.8,70.7,30.25,North,0,0.0,0.0,1,0.00,,,0.00,WeatherCatV1.20B785,2013-07-16 20:25:00,
2013-07-16 16:30:00,72.8,70.7,30.25,North,0,0.0,0.0,1,0.00,,,0.00,WeatherCatV1.20B785,2013-07-16 20:30:00,
2013-07-16 16:35:00,72.8,70.7,30.25,North,0,0.0,0.0,1,0.00,,,0.00,WeatherCatV1.20B785,2013-07-16 20:35:00,
2013-07-16 16:40:00,72.8,70.7,30.25,North,0,0.0,0.0,1,0.00,,,0.00,WeatherCatV1.20B785,2013-07-16 20:40:00,
2013-07-16 16:45:00,72.8,70.7,30.25,North,0,0.0,0.0,1,0.00,,,0.00,WeatherCatV1.20B785,2013-07-16 20:45:00,
2013-07-16 16:50:00,72.8,70.7,30.25,North,0,0.0,0.0,1,0.00,,,0.00,WeatherCatV1.20B785,2013-07-16 20:50:00,
2013-07-16 16:55:00,72.8,70.7,30.25,North,0,0.0,0.0,1,0.00,,,0.00,WeatherCatV1.20B785,2013-07-16 20:55:00,
2013-07-16 17:00:00,72.8,70.7,30.25,North,0,0.0,0.0,1,0.00,,,0.00,WeatherCatV1.20B785,2013-07-16 21:00:00,
2013-07-16 17:05:00,72.8,70.7,30.25,North,0,0.0,0.0,1,0.00,,,0.00,WeatherCatV1.20B785,2013-07-16 21:05:00,
2013-07-16 17:10:00,72.8,70.7,30.25,North,0,0.0,0.0,1,0.00,,,0.00,WeatherCatV1.20B785,2013-07-16 21:10:00,
2013-07-16 17:15:00,72.8,70.7,30.22,North,0,0.0,0.0,1,0.00,,,0.00,WeatherCatV1.20B785,2013-07-16 21:15:00,
2013-07-16 17:20:00,72.8,70.7,30.22,North,0,0.0,0.0,1,0.00,,,0.00,WeatherCatV1.20B785,2013-07-16 21:20:00,
2013-07-16 17:25:00,72.8,70.7,30.22,North,0,0.0,0.0,1,0.00,,,0.00,WeatherCatV1.20B785,2013-07-16 21:25:00,
2013-07-16 17:30:00,72.8,70.7,30.22,North,0,0.0,0.0,1,0.00,,,0.00,WeatherCatV1.20B785,2013-07-16 21:30:00,
2013-07-16 17:35:00,72.8,70.7,30.22,North,0,0.0,0.0,1,0.00,,,0.00,WeatherCatV1.20B785,2013-07-16 21:35:00,
2013-07-16 17:40:00,72.8,70.7,30.22,North,0,0.0,0.0,1,0.00,,,0.00,WeatherCatV1.20B785,2013-07-16 21:40:00,
2013-07-16 17:45:00,72.8,70.7,30.22,North,0,0.0,0.0,1,0.00,,,0.00,WeatherCatV1.20B785,2013-07-16 21:45:00,
2013-07-16 17:50:00,72.8,70.7,30.22,North,0,0.0,0.0,1,0.00,,,0.00,WeatherCatV1.20B785,2013-07-16 21:50:00,
2013-07-16 17:55:00,72.8,70.7,30.22,North,0,0.0,0.0,1,0.00,,,0.00,WeatherCatV1.20B785,2013-07-16 21:55:00,
2013-07-16 18:00:00,72.8,70.7,30.22,North,0,0.0,0.0,1,0.00,,,0.00,WeatherCatV1.20B785,2013-07-16 22:00:00,
2013-07-16 18:05:00,72.8,70.7,30.22,North,0,0.0,0.0,1,0.00,,,0.00,WeatherCatV1.20B785,2013-07-16 22:05:00,
2013-07-16 18:10:00,72.8,70.7,30.22,North,0,0.0,0.0,1,0.00,,,0.00,WeatherCatV1.20B785,2013-07-16 22:10:00,
2013-07-16 18:15:00,72.8,70.7,30.21,North,0,0.0,0.0,1,0.00,,,0.00,WeatherCatV1.20B785,2013-07-16 22:15:00,
2013-07-16 18:20:00,72.8,70.7,30.21,North,0,0.0,0.0,1,0.00,,,0.00,WeatherCatV1.20B785,2013-07-16 22:20:00,
2013-07-16 18:25:00,72.8,70.7,30.21,North,0,0.0,0.0,1,0.00,,,0.00,WeatherCatV1.20B785,2013-07-16 22:25:00,
2013-07-16 18:30:00,72.8,70.7,30.21,North,0,0.0,0.0,1,0.00,,,0.00,WeatherCatV1.20B785,2013-07-16 22:30:00,
2013-07-16 18:35:00,72.8,70.7,30.21,North,0,0.0,0.0,1,0.00,,,0.00,WeatherCatV1.20B785,2013-07-16 22:35:00,
2013-07-16 18:40:00,72.8,70.7,30.21,North,0,0.0,0.0,1,0.00,,,0.00,WeatherCatV1.20B785,2013-07-16 22:40:00,
2013-07-16 18:45:00,72.8,70.7,30.21,North,0,0.0,0.0,1,0.00,,,0.00,WeatherCatV1.20B785,2013-07-16 22:45:00,
2013-07-16 18:50:00,72.8,70.7,30.22,North,0,0.0,0.0,1,0.00,,,0.00,WeatherCatV1.20B785,2013-07-16 22:50:00,
2013-07-16 18:55:00,72.8,70.7,30.22,North,0,0.0,0.0,1,0.00,,,0.00,WeatherCatV1.20B785,2013-07-16 22:55:00,
2013-07-16 19:00:00,72.8,70.7,30.21,North,0,0.0,0.0,1,0.00,,,0.00,WeatherCatV1.20B785,2013-07-16 23:00:00,
2013-07-16 19:05:00,72.8,70.7,30.21,North,0,0.0,0.0,1,0.00,,,0.00,WeatherCatV1.20B785,2013-07-16 23:05:00,
2013-07-16 19:10:00,72.8,70.7,30.21,North,0,0.0,0.0,1,0.00,,,0.00,WeatherCatV1.20B785,2013-07-16 23:10:00,
2013-07-16 19:15:00,72.8,70.7,30.21,North,0,0.0,0.0,1,0.00,,,0.00,WeatherCatV1.20B785,2013-07-16 23:15:00,
2013-07-16 19:20:00,72.8,70.7,30.21,North,0,0.0,0.0,1,0.00,,,0.00,WeatherCatV1.20B785,2013-07-16 23:20:00,
2013-07-16 19:25:00,72.8,70.7,30.21,North,0,0.0,0.0,1,0.00,,,0.00,WeatherCatV1.20B785,2013-07-16 23:25:00,
2013-07-16 19:30:00,72.8,70.7,30.21,North,0,0.0,0.0,1,0.00,,,0.00,WeatherCatV1.20B785,2013-07-16 23:30:00,
2013-07-16 19:35:00,72.8,70.7,30.21,North,0,0.0,0.0,1,0.00,,,0.00,WeatherCatV1.20B785,2013-07-16 23:35:00,
2013-07-16 19:40:00,72.8,70.7,30.21,North,0,0.0,0.0,1,0.00,,,0.00,WeatherCatV1.20B785,2013-07-16 23:40:00,
2013-07-16 19:45:00,72.8,70.7,30.22,North,0,0.0,0.0,1,0.00,,,0.00,WeatherCatV1.20B785,2013-07-16 23:45:00,
2013-07-16 19:50:00,72.8,70.7,30.22,North,0,0.0,0.0,1,0.00,,,0.00,WeatherCatV1.20B785,2013-07-16 23:50:00,
2013-07-16 19:55:00,72.8,70.7,30.22,North,0,0.0,0.0,1,0.00,,,0.00,WeatherCatV1.20B785,2013-07-16 23:55:00,
2013-07-16 20:00:00,72.8,70.7,30.22,North,0,0.0,0.0,1,0.00,,,0.00,WeatherCatV1.20B785,2013-07-17 00:00:00,
2013-07-16 20:05:00,72.8,70.7,30.22,North,0,0.0,0.0,1,0.00,,,0.00,WeatherCatV1.20B785,2013-07-17 00:05:00,
2013-07-16 20:10:00,72.8,70.7,30.22,North,0,0.0,0.0,1,0.00,,,0.00,WeatherCatV1.20B785,2013-07-17 00:10:00,
2013-07-16 20:15:00,72.8,70.7,30.25,North,0,0.0,0.0,1,0.00,,,0.00,WeatherCatV1.20B785,2013-07-17 00:15:00,
2013-07-16 20:20:00,72.8,70.7,30.25,North,0,0.0,0.0,1,0.00,,,0.00,WeatherCatV1.20B785,2013-07-17 00:20:00,
2013-07-16 20:25:00,72.8,70.7,30.25,North,0,0.0,0.0,1,0.00,,,0.00,WeatherCatV1.20B785,2013-07-17 00:25:00,
2013-07-16 20:30:00,72.8,70.7,30.25,North,0,0.0,0.0,1,0.00,,,0.00,WeatherCatV1.20B785,2013-07-17 00:30:00,
2013-07-16 20:35:00,72.8,70.7,30.25,North,0,0.0,0.0,1,0.00,,,0.00,WeatherCatV1.20B785,2013-07-17 00:35:00,
2013-07-16 20:40:00,72.8,70.7,30.25,North,0,0.0,0.0,1,0.00,,,0.00,WeatherCatV1.20B785,2013-07-17 00:40:00,
2013-07-16 20:45:00,72.8,70.7,30.26,North,0,0.0,0.0,1,0.00,,,0.00,WeatherCatV1.20B785,2013-07-17 00:45:00,
2013-07-16 20:50:00,72.8,70.7,30.26,North,0,0.0,0.0,1,0.00,,,0.00,WeatherCatV1.20B785,2013-07-17 00:50:00,
2013-07-16 20:55:00,72.8,70.7,30.26,North,0,0.0,0.0,1,0.00,,,0.00,WeatherCatV1.20B785,2013-07-17 00:55:00,
2013-07-16 21:00:00,72.8,70.7,30.26,North,0,0.0,0.0,1,0.00,,,0.00,WeatherCatV1.20B785,2013-07-17 01:00:00,
2013-07-16 21:05:00,72.8,70.7,30.26,North,0,0.0,0.0,1,0.00,,,0.00,WeatherCatV1.20B785,2013-07-17 01:05:00,
2013-07-16 21:10:00,72.8,70.7,30.26,North,0,0.0,0.0,1,0.00,,,0.00,WeatherCatV1.20B785,2013-07-17 01:10:00,
2013-07-16 21:15:00,72.8,70.7,30.26,North,0,0.0,0.0,1,0.00,,,0.00,WeatherCatV1.20B785,2013-07-17 01:15:00,
2013-07-16 21:20:00,72.8,70.7,30.26,North,0,0.0,0.0,1,0.00,,,0.00,WeatherCatV1.20B785,2013-07-17 01:20:00,
2013-07-16 21:25:00,72.8,70.7,30.26,North,0,0.0,0.0,1,0.00,,,0.00,WeatherCatV1.20B785,2013-07-17 01:25:00,
2013-07-16 21:30:00,72.8,70.7,30.26,North,0,0.0,0.0,1,0.00,,,0.00,WeatherCatV1.20B785,2013-07-17 01:30:00,
2013-07-16 21:35:00,72.8,70.7,30.26,North,0,0.0,0.0,1,0.00,,,0.00,WeatherCatV1.20B785,2013-07-17 01:35:00,
2013-07-16 21:40:00,72.8,70.7,30.26,North,0,0.0,0.0,1,0.00,,,0.00,WeatherCatV1.20B785,2013-07-17 01:40:00,
2013-07-16 21:45:00,72.8,70.7,30.26,North,0,0.0,0.0,1,0.00,,,0.00,WeatherCatV1.20B785,2013-07-17 01:45:00,
2013-07-16 21:50:00,72.8,70.7,30.26,North,0,0.0,0.0,1,0.00,,,0.00,WeatherCatV1.20B785,2013-07-17 01:50:00,
2013-07-16 21:55:00,72.8,70.7,30.26,North,0,0.0,0.0,1,0.00,,,0.00,WeatherCatV1.20B785,2013-07-17 01:55:00,
2013-07-16 22:00:00,72.8,70.7,30.26,North,0,0.0,0.0,1,0.00,,,0.00,WeatherCatV1.20B785,2013-07-17 02:00:00,
2013-07-16 22:05:00,72.8,70.7,30.26,North,0,0.0,0.0,1,0.00,,,0.00,WeatherCatV1.20B785,2013-07-17 02:05:00,
2013-07-16 22:10:00,72.8,70.7,30.26,North,0,0.0,0.0,1,0.00,,,0.00,WeatherCatV1.20B785,2013-07-17 02:10:00,
2013-07-16 22:15:00,72.8,70.7,30.26,North,0,0.0,0.0,1,0.00,,,0.00,WeatherCatV1.20B785,2013-07-17 02:15:00,
2013-07-16 22:20:00,72.8,70.7,30.26,North,0,0.0,0.0,1,0.00,,,0.00,WeatherCatV1.20B785,2013-07-17 02:20:00,
2013-07-16 22:25:00,72.8,70.7,30.26,North,0,0.0,0.0,1,0.00,,,0.00,WeatherCatV1.20B785,2013-07-17 02:25:00,
2013-07-16 22:30:00,72.8,70.7,30.27,North,0,0.0,0.0,1,0.00,,,0.00,WeatherCatV1.20B785,2013-07-17 02:30:00,
2013-07-16 22:35:00,72.8,70.7,30.27,North,0,0.0,0.0,1,0.00,,,0.00,WeatherCatV1.20B785,2013-07-17 02:35:00,
2013-07-16 22:40:00,72.8,70.7,30.27,North,0,0.0,0.0,1,0.00,,,0.00,WeatherCatV1.20B785,2013-07-17 02:40:00,
2013-07-16 22:45:00,72.8,70.7,30.27,North,0,0.0,0.0,1,0.00,,,0.00,WeatherCatV1.20B785,2013-07-17 02:45:00,
2013-07-16 22:50:00,72.8,70.7,30.28,North,0,0.0,0.0,1,0.00,,,0.00,WeatherCatV1.20B785,2013-07-17 02:50:00,
2013-07-16 22:55:00,72.8,70.7,30.28,North,0,0.0,0.0,1,0.00,,,0.00,WeatherCatV1.20B785,2013-07-17 02:55:00,
2013-07-16 23:00:00,72.8,70.7,30.28,North,0,0.0,0.0,1,0.00,,,0.00,WeatherCatV1.20B785,2013-07-17 03:00:00,
2013-07-16 23:05:00,72.8,70.7,30.28,North,0,0.0,0.0,1,0.00,,,0.00,WeatherCatV1.20B785,2013-07-17 03:05:00,
2013-07-16 23:10:00,72.8,70.7,30.28,North,0,0.0,0.0,1,0.00,,,0.00,WeatherCatV1.20B785,2013-07-17 03:10:00,
2013-07-16 23:15:00,72.8,70.7,30.28,North,0,0.0,0.0,1,0.00,,,0.00,WeatherCatV1.20B785,2013-07-17 03:15:00,
2013-07-16 23:20:00,72.8,70.7,30.28,North,0,0.0,0.0,1,0.00,,,0.00,WeatherCatV1.20B785,2013-07-17 03:20:00,
2013-07-16 23:25:00,72.8,70.7,30.28,North,0,0.0,0.0,1,0.00,,,0.00,WeatherCatV1.20B785,2013-07-17 03:25:00,
2013-07-16 23:30:00,72.8,70.7,30.29,North,0,0.0,0.0,1,0.00,,,0.00,WeatherCatV1.20B785,2013-07-17 03:30:00,
2013-07-16 23:35:00,72.8,70.7,30.29,North,0,0.0,0.0,1,0.00,,,0.00,WeatherCatV1.20B785,2013-07-17 03:35:00,
2013-07-16 23:40:00,72.8,70.7,30.29,North,0,0.0,0.0,1,0.00,,,0.00,WeatherCatV1.20B785,2013-07-17 03:40:00,
2013-07-16 23:45:00,72.8,70.7,30.29,North,0,0.0,0.0,1,0.00,,,0.00,WeatherCatV1.20B785,2013-07-17 03:45:00,
2013-07-16 23:50:00,72.8,70.7,30.29,North,0,0.0,0.0,1,0.00,,,0.00,WeatherCatV1.20B785,2013-07-17 03:50:00,
2013-07-16 23:55:00,72.8,70.7,30.29,North,0,0.0,0.0,1,0.00,,,0.00,WeatherCatV1.20B785,2013-07-17 03:55:00,